Content
SEND FEEDBACK

Daily
Averages
Monthly
Summary
Canada

VANCOUVER - UNIVERSITY, BRITISH COLUMBIA


Home > North America > Canada > British Columbia
Elevation: 249 feet     Latitude: 49 15N     Longitude: 123 15W

WEATHER
 
SELECT A DAY
Number of Records: 194,938;   Date Range: 1/1/95 - 9/17/14
 
SHARE

PRINT THIS DATA

[ ← Previous Day ]
WEATHER ALMANAC - JANUARY 6, 2013
[ Next Day → ]
[ °C ]   °F
Weather ElementAverageHighLow
Temperature41.4 °F42.8 °F (6:00 am)38 °F (4:00 am)
Dewpoint34.8 °F41 °F (8:00 am) (7:00 pm)
Humidity94.9 %100 % (1:00 am)87 % (6:00 am)
Barometer26.20 in30.14 in (10:00 am) (7:00 pm)
Wind Speed9.9 mph15 mph (10:00 pm)
Wind Gust19.6 mph (11:00 pm)
Weather ElementAverage
Visibility10.9 mi
Wind DirectionESE (108.1 °)

Weather ElementTotal
Precipitation---
Heating Degree Days24.6 (Base 65)
Averaged from 31 records on January 6, 2013
WEATHER CONDITIONS BREAKOUT
WIND DIRECTION BREAKOUT
WEATHER BY HOUR - JANUARY 6, 2013
[ °C ]   °F
Local TimeTemperatureDewpointHumidityBarometerVisibilityWind DirectionWind SpeedGust SpeedPrecipitationEventsConditions
1:00 AM39.2 °F39.2 °F100 %30.10 in15.0 miENE (70°)9.2 mphOvercast
2:00 AM39.2 °F37.4 °F93 %30.11 in15.0 miEast (90°)6.9 mphOvercast
3:00 AM39.2 °F39.2 °F100 %30.12 in15.0 miEast (90°)5.8 mphOvercast
4:00 AM38.0 °F37.0 °F97 %30.11 in15.0 miEast (90°)6.9 mphPartly Cloudy
4:00 AM39.2 °F37.4 °F93 %30.11 in15.0 miEast (100°)6.9 mphMostly Cloudy
5:00 AM39.2 °F39.2 °F100 %30.11 in15.0 miEast (80°)4.6 mphOvercast
6:00 AM42.8 °F39.2 °F87 %30.10 in15.0 miSSE (150°)6.9 mphOvercast
7:00 AM42.8 °F39.2 °F87 %30.12 in15.0 miESE (120°)5.8 mphOvercast
8:00 AM42.8 °F41.0 °F93 %30.12 in15.0 miSSE (150°)10.4 mphOvercast
9:00 AM42.8 °F41.0 °F93 %30.12 in12.0 miSE (140°)10.4 mphMostly Cloudy
9:17 AM42.8 °F0.0 °F12.0 miSSE (160°)12.7 mphRainLight Rain Showers
10:00 AM42.0 °F40.0 °F91 %30.14 in10.0 miSSE (160°)10.4 mphRainLight Rain Showers
10:00 AM42.8 °F41.0 °F93 %30.14 in10.0 miSSE (150°)10.4 mphRainLight Rain Showers
11:00 AM42.8 °F41.0 °F93 %30.13 in10.0 miESE (120°)8.1 mphRainLight Rain
12:00 PM42.8 °F41.0 °F93 %30.11 in10.0 miSE (140°)10.4 mphRainLight Rain
12:16 PM42.8 °F0.0 °F10.0 miSE (140°)9.2 mphRainLight Rain
12:27 PM42.8 °F0.0 °F10.0 miSE (130°)9.2 mphRainLight Rain
1:00 PM42.8 °F41.0 °F93 %30.10 in10.0 miSE (130°)11.5 mphRainLight Rain
2:00 PM42.8 °F41.0 °F93 %30.10 in10.0 miSE (130°)12.7 mphRainLight Rain
3:00 PM42.8 °F41.0 °F93 %30.08 in12.0 miESE (110°)10.4 mphRainLight Rain
4:00 PM42.0 °F41.0 °F96 %30.08 in7.0 miEast (90°)9.2 mphRainLight Rain
4:00 PM42.8 °F41.0 °F93 %30.08 in8.0 miEast (90°)9.2 mphRainLight Rain
5:00 PM41.0 °F41.0 °F100 %30.06 in8.0 miEast (90°)10.4 mphRainLight Rain
6:00 PM41.0 °F41.0 °F100 %30.05 in8.0 miEast (90°)11.5 mphRainLight Rain
7:00 PM41.0 °F41.0 °F100 %30.05 in8.0 miENE (60°)13.8 mphRainLight Rain
7:34 PM41.0 °F0.0 °F8.0 miENE (70°)9.2 mphRainLight Rain
8:00 PM41.0 °F41.0 °F100 %30.03 in8.0 miEast (80°)11.5 mphRainLight Rain
9:00 PM41.0 °F39.2 °F93 %30.01 in8.0 miEast (90°)10.4 mphRainLight Rain
10:00 PM40.0 °F39.0 °F96 %30.00 in7.0 miEast (80°)13.8 mphRainLight Rain
10:00 PM41.0 °F39.2 °F93 %30.00 in8.0 miEast (80°)15.0 mphRainLight Rain
11:00 PM39.2 °F39.2 °F100 %30.00 in8.0 miEast (80°)13.8 mph19.6 mphRainLight Rain
Hourly data recorded from CYVR, located miles away from Vancouver - University, British Columbia







STORIES FROM OUR PARTNERS